| time (UTC) | temp C | wind direction | speed KPH | gust KPH | rain 1hr cm | rain 24hr cm | rain mn cm | humidity % | barometer mb |
| 20260504080229 | 16 | 70 | 0.0 | 16.1 | 0.00 | 0.00 | 0.00 | 97 | 915.8 |
| 20260504070228 | 16 | 74 | 0.0 | 19.3 | 0.00 | 0.00 | 0.00 | 96 | 916.4 |
| 20260504060229 | 17 | 85 | 6.4 | 17.7 | 0.00 | 0.00 | 0.00 | 89 | 916.8 |
| 20260504050727 | 17 | 80 | 16.1 | 25.7 | 0.00 | 0.00 | 0.00 | 87 | 917.0 |
| 20260504050529 | 17 | 104 | 17.7 | 25.7 | 0.00 | 0.00 | 0.00 | 88 | 917.0 |
| 20260504045929 | 17 | 98 | 20.9 | 29.0 | 0.00 | 0.00 | 0.00 | 86 | 916.7 |
| 20260504045727 | 18 | 67 | 1.6 | 24.1 | 0.00 | 0.00 | 0.00 | 87 | 916.9 |
| 20260504045329 | 18 | 83 | 17.7 | 27.4 | 0.00 | 0.00 | 0.00 | 88 | 916.9 |
| 20260504045227 | 18 | 67 | 17.7 | 27.4 | 0.00 | 0.00 | 0.00 | 87 | 916.9 |
| 20260504044729 | 18 | 71 | 16.1 | 25.7 | 0.00 | 0.00 | 0.00 | 87 | 917.0 |
| 20260504044727 | 18 | 76 | 16.1 | 25.7 | 0.00 | 0.00 | 0.00 | 87 | 917.0 |
| 20260504044227 | 18 | 73 | 16.1 | 27.4 | 0.00 | 0.00 | 0.00 | 88 | 917.0 |
| 20260504044128 | 18 | 66 | 16.1 | 27.4 | 0.00 | 0.00 | 0.00 | 89 | 917.1 |
| 20260504043727 | 18 | 86 | 19.3 | 27.4 | 0.00 | 0.00 | 0.00 | 88 | 916.8 |
| 20260504043528 | 18 | 78 | 17.7 | 27.4 | 0.00 | 0.00 | 0.00 | 88 | 916.9 |
| 20260504043227 | 18 | 70 | 0.0 | 16.1 | 0.00 | 0.00 | 0.00 | 88 | 916.9 |
| 20260504042928 | 18 | 84 | 17.7 | 24.1 | 0.00 | 0.00 | 0.00 | 87 | 916.9 |
| 20260504042727 | 18 | 60 | 17.7 | 24.1 | 0.00 | 0.00 | 0.00 | 88 | 916.9 |
| 20260504042328 | 17 | 77 | 16.1 | 24.1 | 0.00 | 0.00 | 0.00 | 88 | 916.8 |
| 20260504042229 | 17 | 64 | 17.7 | 24.1 | 0.00 | 0.00 | 0.00 | 89 | 916.9 |
| 20260504040727 | 17 | 72 | 16.1 | 20.9 | 0.00 | 0.00 | 0.00 | 90 | 917.1 |
| 20260504040528 | 17 | 78 | 16.1 | 20.9 | 0.00 | 0.00 | 0.00 | 90 | 917.1 |
| 20260504040227 | 17 | 49 | 14.5 | 20.9 | 0.00 | 0.00 | 0.00 | 90 | 917.1 |
| 20260504035928 | 17 | 64 | 11.3 | 17.7 | 0.00 | 0.00 | 0.00 | 90 | 917.1 |
| 20260504035727 | 17 | 66 | 16.1 | 20.9 | 0.00 | 0.00 | 0.00 | 90 | 917.1 |
| 20260504035328 | 17 | 84 | 14.5 | 20.9 | 0.00 | 0.00 | 0.00 | 89 | 917.2 |
| 20260504035227 | 17 | 72 | 14.5 | 20.9 | 0.00 | 0.00 | 0.00 | 90 | 917.1 |
| 20260504034728 | 17 | 78 | 1.6 | 17.7 | 0.00 | 0.00 | 0.00 | 90 | 917.2 |
| 20260504034228 | 17 | 85 | 12.9 | 17.7 | 0.00 | 0.00 | 0.00 | 90 | 917.2 |
| 20260504034128 | 17 | 57 | 8.0 | 17.7 | 0.00 | 0.00 | 0.00 | 90 | 917.2 |
| 20260504033727 | 16 | 71 | 0.0 | 14.5 | 0.00 | 0.00 | 0.00 | 90 | 917.2 |
| 20260504031728 | 17 | 52 | 4.8 | 19.3 | 0.00 | 0.00 | 0.00 | 86 | 917.1 |
| 20260504031726 | 17 | 55 | 4.8 | 19.3 | 0.00 | 0.00 | 0.00 | 86 | 917.0 |
| 20260504031228 | 17 | 71 | 0.0 | 16.1 | 0.00 | 0.00 | 0.00 | 87 | 917.0 |
| 20260504031129 | 17 | 58 | 0.0 | 0.0 | 0.00 | 0.00 | 0.00 | 87 | 917.1 |
| 20260504030726 | 17 | 60 | 0.0 | 14.5 | 0.00 | 0.00 | 0.00 | 86 | 917.2 |
| 20260504030528 | 17 | 57 | 0.0 | 12.9 | 0.00 | 0.00 | 0.00 | 86 | 917.2 |
| 20260504030226 | 17 | 78 | 4.8 | 16.1 | 0.00 | 0.00 | 0.00 | 86 | 917.3 |
| 20260504025927 | 17 | 64 | 1.6 | 16.1 | 0.00 | 0.00 | 0.00 | 87 | 917.4 |
| 20260504025726 | 17 | 46 | 1.6 | 12.9 | 0.00 | 0.00 | 0.00 | 86 | 917.4 |
| 20260504025226 | 17 | 67 | 0.0 | 12.9 | 0.00 | 0.00 | 0.00 | 86 | 917.4 |
| 20260504024728 | 17 | 73 | 1.6 | 16.1 | 0.00 | 0.00 | 0.00 | 86 | 917.4 |
| 20260504024726 | 17 | 62 | 1.6 | 16.1 | 0.00 | 0.00 | 0.00 | 86 | 917.4 |
| 20260504024226 | 17 | 70 | 0.0 | 0.0 | 0.00 | 0.00 | 0.00 | 85 | 917.4 |
| 20260504024127 | 17 | 91 | 0.0 | 17.7 | 0.00 | 0.00 | 0.00 | 85 | 917.4 |
| 20260504022226 | 17 | 66 | 1.6 | 14.5 | 0.00 | 0.00 | 0.00 | 85 | 917.3 |
| 20260504021728 | 18 | 64 | 12.9 | 14.5 | 0.00 | 0.00 | 0.00 | 85 | 917.2 |
| 20260504021726 | 18 | 38 | 12.9 | 14.5 | 0.00 | 0.00 | 0.00 | 85 | 917.2 |
| 20260504020727 | 17 | 45 | 3.2 | 17.7 | 0.00 | 0.00 | 0.00 | 84 | 917.1 |
| 20260504015927 | 17 | 21 | 3.2 | 16.1 | 0.00 | 0.00 | 0.00 | 85 | 917.1 |
| 20260504015726 | 17 | 34 | 8.0 | 17.7 | 0.00 | 0.00 | 0.00 | 84 | 917.0 |
| 20260504015327 | 17 | 27 | 16.1 | 22.5 | 0.00 | 0.00 | 0.00 | 84 | 916.8 |
| 20260504015226 | 17 | 57 | 16.1 | 22.5 | 0.00 | 0.00 | 0.00 | 84 | 916.8 |
| 20260504014727 | 17 | 43 | 16.1 | 20.9 | 0.00 | 0.00 | 0.00 | 85 | 917.0 |
| 20260504014226 | 17 | 23 | 9.7 | 20.9 | 0.00 | 0.00 | 0.00 | 85 | 917.0 |
| 20260504014127 | 17 | 19 | 0.0 | 16.1 | 0.00 | 0.00 | 0.00 | 85 | 917.0 |
| 20260504013726 | 17 | 46 | 17.7 | 20.9 | 0.00 | 0.00 | 0.00 | 85 | 917.0 |
| 20260504013527 | 17 | 45 | 14.5 | 20.9 | 0.00 | 0.00 | 0.00 | 85 | 917.1 |
| 20260504012927 | 17 | 45 | 3.2 | 19.3 | 0.00 | 0.00 | 0.00 | 84 | 917.1 |
| 20260504012726 | 17 | 58 | 16.1 | 20.9 | 0.00 | 0.00 | 0.00 | 84 | 917.1 |
| 20260504012327 | 17 | 65 | 14.5 | 19.3 | 0.00 | 0.00 | 0.00 | 84 | 917.1 |
| 20260504012226 | 17 | 59 | 14.5 | 19.3 | 0.00 | 0.00 | 0.00 | 84 | 917.0 |
| 20260504011727 | 17 | 46 | 12.9 | 24.1 | 0.00 | 0.00 | 0.00 | 84 | 916.8 |
| 20260504011225 | 17 | 41 | 9.7 | 20.9 | 0.00 | 0.00 | 0.00 | 84 | 916.8 |
| 20260504011127 | 17 | 53 | 0.0 | 17.7 | 0.00 | 0.00 | 0.00 | 84 | 916.8 |
| 20260504010725 | 17 | 43 | 16.1 | 19.3 | 0.00 | 0.00 | 0.00 | 84 | 916.7 |
| 20260504010528 | 17 | 47 | 16.1 | 19.3 | 0.00 | 0.00 | 0.00 | 84 | 916.6 |
| 20260504010225 | 17 | 36 | 1.6 | 17.7 | 0.00 | 0.00 | 0.00 | 85 | 916.6 |
| 20260504005927 | 17 | 21 | 8.0 | 20.9 | 0.00 | 0.00 | 0.00 | 84 | 916.6 |
| 20260504005725 | 17 | 39 | 16.1 | 19.3 | 0.00 | 0.00 | 0.00 | 84 | 916.6 |
| 20260504005327 | 17 | 34 | 14.5 | 19.3 | 0.00 | 0.00 | 0.00 | 84 | 916.6 |
| 20260504005225 | 17 | 19 | 12.9 | 19.3 | 0.00 | 0.00 | 0.00 | 85 | 916.6 |
| 20260504004225 | 17 | 36 | 9.7 | 20.9 | 0.00 | 0.00 | 0.00 | 84 | 916.5 |
| 20260504004126 | 17 | 33 | 0.0 | 17.7 | 0.00 | 0.00 | 0.00 | 85 | 916.4 |
| 20260504003726 | 17 | 25 | 17.7 | 20.9 | 0.00 | 0.00 | 0.00 | 84 | 916.5 |
| 20260504003526 | 17 | 35 | 4.8 | 20.9 | 0.00 | 0.00 | 0.00 | 85 | 916.5 |
| 20260504003226 | 17 | 33 | 16.1 | 19.3 | 0.00 | 0.00 | 0.00 | 85 | 916.6 |
| 20260504002926 | 17 | 28 | 17.7 | 19.3 | 0.00 | 0.00 | 0.00 | 85 | 916.6 |
| 20260504002725 | 16 | 29 | 1.6 | 19.3 | 0.00 | 0.00 | 0.00 | 85 | 916.6 |
| 20260504002326 | 16 | 7 | 3.2 | 19.3 | 0.00 | 0.00 | 0.00 | 85 | 916.5 |
| 20260504002225 | 16 | 38 | 16.1 | 24.1 | 0.00 | 0.00 | 0.00 | 85 | 916.5 |
| 20260504001727 | 16 | 22 | 17.7 | 24.1 | 0.00 | 0.00 | 0.00 | 85 | 916.4 |
| 20260504001725 | 16 | 9 | 17.7 | 24.1 | 0.00 | 0.00 | 0.00 | 85 | 916.5 |
| 20260504001225 | 16 | 10 | 19.3 | 25.7 | 0.00 | 0.00 | 0.00 | 85 | 916.3 |
| 20260504001126 | 16 | 29 | 17.7 | 25.7 | 0.00 | 0.00 | 0.00 | 85 | 916.3 |
| 20260504000725 | 16 | 25 | 19.3 | 25.7 | 0.00 | 0.00 | 0.00 | 86 | 916.2 |
| 20260504000526 | 16 | 32 | 19.3 | 25.7 | 0.00 | 0.00 | 0.00 | 86 | 916.2 |
| 20260504000226 | 16 | 20 | 19.3 | 27.4 | 0.00 | 0.00 | 0.00 | 86 | 916.1 |
| 20260503235926 | 16 | 4 | 22.5 | 27.4 | 0.00 | 0.00 | 0.00 | 86 | 916.1 |
| 20260503235326 | 16 | 21 | 19.3 | 27.4 | 0.00 | 0.00 | 0.00 | 86 | 916.0 |
| 20260503235225 | 16 | 32 | 19.3 | 27.4 | 0.00 | 0.00 | 0.00 | 85 | 916.0 |
| 20260503234727 | 16 | 16 | 17.7 | 22.5 | 0.00 | 0.00 | 0.00 | 86 | 916.0 |
| 20260503234725 | 16 | 26 | 17.7 | 22.5 | 0.00 | 0.00 | 0.00 | 86 | 916.0 |
| 20260503234225 | 16 | 22 | 17.7 | 22.5 | 0.00 | 0.00 | 0.00 | 86 | 915.9 |
| 20260503234127 | 16 | 7 | 17.7 | 22.5 | 0.00 | 0.00 | 0.00 | 86 | 915.9 |
| 20260503233725 | 16 | 12 | 19.3 | 25.7 | 0.00 | 0.00 | 0.00 | 86 | 915.7 |
| 20260503233526 | 16 | 11 | 17.7 | 25.7 | 0.00 | 0.00 | 0.00 | 86 | 915.8 |
| 20260503233225 | 16 | 19 | 19.3 | 25.7 | 0.00 | 0.00 | 0.00 | 86 | 915.8 |
| 20260503232927 | 16 | 2 | 19.3 | 24.1 | 0.00 | 0.00 | 0.00 | 86 | 915.6 |
| 20260503232726 | 16 | 16 | 20.9 | 25.7 | 0.00 | 0.00 | 0.00 | 86 | 915.6 |
| 20260503232326 | 16 | 6 | 19.3 | 25.7 | 0.00 | 0.00 | 0.00 | 87 | 915.5 |
| 20260503232225 | 16 | 9 | 19.3 | 25.7 | 0.00 | 0.00 | 0.00 | 87 | 915.6 |
| 20260503231728 | 16 | 352 | 19.3 | 27.4 | 0.00 | 0.00 | 0.00 | 87 | 915.6 |
| 20260503231726 | 16 | 18 | 19.3 | 27.4 | 0.00 | 0.00 | 0.00 | 87 | 915.5 |
| 20260503231224 | 16 | 13 | 20.9 | 27.4 | 0.00 | 0.00 | 0.00 | 87 | 915.3 |
| 20260503231126 | 16 | 3 | 20.9 | 27.4 | 0.00 | 0.00 | 0.00 | 87 | 915.4 |
| 20260503230726 | 16 | 20 | 12.9 | 27.4 | 0.00 | 0.00 | 0.00 | 87 | 915.4 |
| 20260503230526 | 16 | 23 | 20.9 | 25.7 | 0.00 | 0.00 | 0.00 | 87 | 915.4 |
| 20260503230225 | 16 | 3 | 17.7 | 22.5 | 0.00 | 0.00 | 0.00 | 87 | 915.5 |
| 20260503225926 | 16 | 12 | 16.1 | 22.5 | 0.00 | 0.00 | 0.00 | 88 | 915.4 |
| 20260503225724 | 16 | 21 | 16.1 | 20.9 | 0.00 | 0.00 | 0.00 | 88 | 915.4 |
| 20260503225326 | 16 | 12 | 16.1 | 20.9 | 0.00 | 0.00 | 0.00 | 88 | 915.5 |
| 20260503225224 | 16 | 360 | 16.1 | 20.9 | 0.00 | 0.00 | 0.00 | 88 | 915.4 |
| 20260503224726 | 16 | 3 | 16.1 | 20.9 | 0.00 | 0.00 | 0.00 | 87 | 915.2 |
| 20260503224724 | 16 | 4 | 16.1 | 20.9 | 0.00 | 0.00 | 0.00 | 87 | 915.3 |
| 20260503224224 | 16 | 360 | 14.5 | 19.3 | 0.00 | 0.00 | 0.00 | 87 | 915.2 |
| 20260503224126 | 16 | 349 | 14.5 | 19.3 | 0.00 | 0.00 | 0.00 | 87 | 915.1 |
| 20260503223724 | 16 | 353 | 14.5 | 17.7 | 0.00 | 0.00 | 0.00 | 87 | 915.1 |
| 20260503223525 | 16 | 360 | 9.7 | 17.7 | 0.00 | 0.00 | 0.00 | 87 | 915.1 |
| 20260503223224 | 16 | 8 | 16.1 | 19.3 | 0.00 | 0.00 | 0.00 | 87 | 915.1 |
| 20260503222925 | 17 | 2 | 11.3 | 19.3 | 0.00 | 0.00 | 0.00 | 87 | 915.0 |
| 20260503222325 | 17 | 355 | 16.1 | 20.9 | 0.00 | 0.00 | 0.00 | 87 | 914.9 |
| 20260503222224 | 17 | 360 | 17.7 | 20.9 | 0.00 | 0.00 | 0.00 | 87 | 914.8 |
| 20260503221726 | 16 | 22 | 6.4 | 17.7 | 0.00 | 0.00 | 0.00 | 87 | 915.0 |
| 20260503221724 | 16 | 6 | 6.4 | 17.7 | 0.00 | 0.00 | 0.00 | 87 | 915.0 |
| 20260503221226 | 16 | 22 | 0.0 | 0.0 | 0.00 | 0.00 | 0.00 | 87 | 914.8 |
| 20260503221125 | 16 | 13 | 14.5 | 19.3 | 0.00 | 0.00 | 0.00 | 87 | 914.8 |
| 20260503220724 | 16 | 336 | 17.7 | 24.1 | 0.00 | 0.00 | 0.00 | 87 | 914.6 |
| 20260503220525 | 16 | 2 | 14.5 | 24.1 | 0.00 | 0.00 | 0.00 | 87 | 914.6 |
| 20260503220225 | 16 | 341 | 9.7 | 24.1 | 0.00 | 0.00 | 0.00 | 87 | 914.5 |
| 20260503215925 | 16 | 344 | 16.1 | 22.5 | 0.00 | 0.00 | 0.00 | 87 | 914.4 |
| 20260503215724 | 16 | 360 | 14.5 | 22.5 | 0.00 | 0.00 | 0.00 | 87 | 914.3 |
| 20260503215325 | 16 | 360 | 16.1 | 25.7 | 0.00 | 0.00 | 0.00 | 87 | 914.3 |
| 20260503215224 | 16 | 333 | 17.7 | 25.7 | 0.00 | 0.00 | 0.00 | 87 | 914.2 |
| 20260503214725 | 16 | 360 | 19.3 | 25.7 | 0.00 | 0.00 | 0.00 | 87 | 914.1 |
| 20260503214224 | 16 | 2 | 19.3 | 24.1 | 0.00 | 0.00 | 0.00 | 87 | 914.1 |
| 20260503214125 | 16 | 1 | 16.1 | 25.7 | 0.00 | 0.00 | 0.00 | 87 | 914.1 |
| 20260503213724 | 16 | 349 | 17.7 | 25.7 | 0.00 | 0.00 | 0.00 | 87 | 914.3 |
| 20260503213525 | 16 | 22 | 16.1 | 25.7 | 0.00 | 0.00 | 0.00 | 87 | 914.2 |
| 20260503213224 | 16 | 0 | 19.3 | 25.7 | 0.00 | 0.00 | 0.00 | 87 | 914.1 |
| 20260503212925 | 16 | 8 | 17.7 | 24.1 | 0.00 | 0.00 | 0.00 | 87 | 914.0 |
| 20260503212724 | 16 | 1 | 17.7 | 25.7 | 0.00 | 0.00 | 0.00 | 87 | 914.0 |
| 20260503212325 | 16 | 360 | 19.3 | 27.4 | 0.00 | 0.00 | 0.00 | 86 | 913.9 |
| 20260503212224 | 16 | 16 | 17.7 | 27.4 | 0.00 | 0.00 | 0.00 | 87 | 914.0 |
| 20260503211725 | 16 | 2 | 20.9 | 27.4 | 0.00 | 0.00 | 0.00 | 87 | 913.9 |
| 20260503211125 | 17 | 1 | 19.3 | 25.7 | 0.00 | 0.00 | 0.00 | 88 | 913.8 |
| 20260503210525 | 17 | 360 | 19.3 | 27.4 | 0.00 | 0.00 | 0.00 | 88 | 913.7 |
| 20260503210223 | 17 | 358 | 20.9 | 27.4 | 0.00 | 0.00 | 0.00 | 88 | 913.6 |
| 20260503205925 | 17 | 360 | 20.9 | 27.4 | 0.00 | 0.00 | 0.00 | 89 | 913.6 |
| 20260503205723 | 17 | 3 | 19.3 | 27.4 | 0.00 | 0.00 | 0.00 | 89 | 913.6 |
| 20260503205325 | 17 | 360 | 17.7 | 24.1 | 0.00 | 0.00 | 0.00 | 89 | 913.5 |
| 20260503205223 | 17 | 7 | 16.1 | 24.1 | 0.00 | 0.00 | 0.00 | 89 | 913.7 |
| 20260503204725 | 17 | 6 | 17.7 | 27.4 | 0.00 | 0.00 | 0.00 | 89 | 913.7 |
| 20260503204723 | 17 | 347 | 17.7 | 27.4 | 0.00 | 0.00 | 0.00 | 89 | 913.7 |
| 20260503204223 | 17 | 351 | 14.5 | 19.3 | 0.00 | 0.00 | 0.00 | 90 | 913.6 |
| 20260503204125 | 17 | 344 | 12.9 | 20.9 | 0.00 | 0.00 | 0.00 | 90 | 913.6 |
| 20260503203525 | 17 | 355 | 11.3 | 20.9 | 0.00 | 0.00 | 0.00 | 90 | 913.5 |
| 20260503203223 | 17 | 360 | 9.7 | 20.9 | 0.00 | 0.00 | 0.00 | 91 | 913.3 |
| 20260503202925 | 17 | 351 | 9.7 | 20.9 | 0.00 | 0.00 | 0.00 | 91 | 913.4 |
| 20260503202724 | 17 | 345 | 11.3 | 20.9 | 0.00 | 0.00 | 0.00 | 91 | 913.5 |
| 20260503202325 | 17 | 360 | 11.3 | 20.9 | 0.00 | 0.00 | 0.00 | 91 | 913.4 |
| 20260503202223 | 17 | 345 | 12.9 | 20.9 | 0.00 | 0.00 | 0.00 | 91 | 913.4 |
| 20260503201725 | 17 | 360 | 12.9 | 19.3 | 0.00 | 0.00 | 0.00 | 91 | 913.4 |
| 20260503201723 | 17 | 348 | 12.9 | 19.3 | 0.00 | 0.00 | 0.00 | 91 | 913.3 |
| 20260503201124 | 16 | 349 | 16.1 | 22.5 | 0.00 | 0.00 | 0.00 | 91 | 913.5 |
| 20260503200723 | 17 | 343 | 16.1 | 22.5 | 0.00 | 0.00 | 0.00 | 91 | 913.3 |
| 20260503200524 | 17 | 36 | 14.5 | 20.9 | 0.00 | 0.00 | 0.00 | 91 | 913.5 |
| 20260503200224 | 17 | 3 | 14.5 | 20.9 | 0.00 | 0.00 | 0.00 | 92 | 913.4 |
| 20260503195925 | 16 | 313 | 16.1 | 20.9 | 0.00 | 0.00 | 0.00 | 92 | 913.5 |
| 20260503195723 | 17 | 347 | 14.5 | 22.5 | 0.00 | 0.00 | 0.00 | 92 | 913.4 |
| 20260503195324 | 16 | 353 | 16.1 | 22.5 | 0.00 | 0.00 | 0.00 | 92 | 913.3 |
| 20260503195223 | 16 | 347 | 16.1 | 22.5 | 0.00 | 0.00 | 0.00 | 92 | 913.3 |
| 20260503194723 | 16 | 354 | 17.7 | 22.5 | 0.00 | 0.00 | 0.00 | 92 | 913.4 |
| 20260503194223 | 16 | 337 | 16.1 | 24.1 | 0.00 | 0.00 | 0.00 | 93 | 913.4 |
| 20260503194124 | 16 | 333 | 16.1 | 24.1 | 0.00 | 0.00 | 0.00 | 93 | 913.5 |
| 20260503193723 | 16 | 7 | 19.3 | 24.1 | 0.00 | 0.00 | 0.00 | 94 | 913.5 |
| 20260503193525 | 16 | 10 | 17.7 | 25.7 | 0.00 | 0.00 | 0.00 | 95 | 913.5 |
| 20260503193223 | 16 | 9 | 16.1 | 25.7 | 0.00 | 0.00 | 0.00 | 95 | 913.5 |
| 20260503192924 | 16 | 349 | 17.7 | 25.7 | 0.00 | 0.00 | 0.00 | 95 | 913.5 |
| 20260503192723 | 15 | 345 | 19.3 | 25.7 | 0.00 | 0.00 | 0.00 | 95 | 913.5 |
| 20260503192324 | 15 | 348 | 17.7 | 25.7 | 0.00 | 0.00 | 0.00 | 95 | 913.5 |
| 20260503191724 | 15 | 359 | 20.9 | 25.7 | 0.00 | 0.00 | 0.00 | 95 | 913.4 |
| 20260503191223 | 15 | 360 | 19.3 | 25.7 | 0.00 | 0.00 | 0.00 | 96 | 913.4 |
| 20260503191124 | 15 | 342 | 19.3 | 25.7 | 0.00 | 0.00 | 0.00 | 96 | 913.5 |
| 20260503190723 | 16 | 360 | 17.7 | 22.5 | 0.00 | 0.00 | 0.00 | 96 | 913.6 |
| 20260503190524 | 16 | 359 | 14.5 | 20.9 | 0.00 | 0.00 | 0.00 | 96 | 913.7 |
| 20260503190223 | 16 | 357 | 12.9 | 17.7 | 0.00 | 0.00 | 0.00 | 96 | 913.7 |
| 20260503185924 | 16 | 335 | 9.7 | 16.1 | 0.00 | 0.00 | 0.00 | 96 | 913.8 |
| 20260503185723 | 17 | 360 | 9.7 | 16.1 | 0.00 | 0.00 | 0.00 | 96 | 913.9 |
| 20260503185324 | 17 | 305 | 6.4 | 12.9 | 0.00 | 0.00 | 0.00 | 96 | 913.9 |
| 20260503185224 | 17 | 328 | 4.8 | 11.3 | 0.00 | 0.00 | 0.00 | 96 | 914.0 |
| 20260503184724 | 17 | 325 | 4.8 | 11.3 | 0.00 | 0.00 | 0.00 | 96 | 913.9 |
| 20260503184722 | 17 | 317 | 4.8 | 11.3 | 0.00 | 0.00 | 0.00 | 96 | 913.9 |
| 20260503184223 | 17 | 309 | 3.2 | 8.0 | 0.00 | 0.00 | 0.00 | 96 | 914.0 |
| 20260503184124 | 17 | 335 | 3.2 | 8.0 | 0.00 | 0.00 | 0.00 | 96 | 914.0 |
| 20260503183722 | 17 | 334 | 3.2 | 6.4 | 0.00 | 0.00 | 0.00 | 97 | 913.9 |
| 20260503183524 | 17 | 353 | 1.6 | 8.0 | 0.00 | 0.00 | 0.00 | 97 | 913.9 |
| 20260503183223 | 17 | 354 | 4.8 | 8.0 | 0.00 | 0.00 | 0.00 | 97 | 913.9 |
| 20260503182924 | 17 | 40 | 3.2 | 6.4 | 0.00 | 0.00 | 0.00 | 97 | 913.9 |
| 20260503182723 | 17 | 44 | 3.2 | 6.4 | 0.00 | 0.00 | 0.00 | 97 | 913.9 |
| 20260503182324 | 17 | 355 | 3.2 | 4.8 | 0.00 | 0.00 | 0.00 | 97 | 913.9 |
| 20260503182222 | 17 | 8 | 3.2 | 4.8 | 0.00 | 0.00 | 0.00 | 97 | 914.0 |
| 20260503181722 | 17 | 360 | 3.2 | 4.8 | 0.00 | 0.00 | 0.00 | 97 | 914.1 |
| 20260503181222 | 17 | 20 | 1.6 | 3.2 | 0.00 | 0.00 | 0.00 | 97 | 914.2 |
| 20260503181123 | 17 | 13 | 0.0 | 3.2 | 0.00 | 0.00 | 0.00 | 97 | 914.2 |
| 20260503180722 | 17 | 254 | 0.0 | 6.4 | 0.00 | 0.00 | 0.00 | 97 | 914.3 |
| 20260503180524 | 17 | 260 | 0.0 | 6.4 | 0.00 | 0.00 | 0.00 | 97 | 914.3 |
| 20260503180222 | 17 | 277 | 0.0 | 6.4 | 0.00 | 0.00 | 0.00 | 97 | 914.4 |
| 20260503175923 | 17 | 315 | 4.8 | 6.4 | 0.00 | 0.00 | 0.00 | 97 | 914.5 |
| 20260503175722 | 17 | 301 | 4.8 | 6.4 | 0.00 | 0.00 | 0.00 | 97 | 914.6 |
| 20260503175323 | 17 | 266 | 3.2 | 6.4 | 0.00 | 0.00 | 0.00 | 98 | 914.6 |
| 20260503175222 | 17 | 277 | 4.8 | 6.4 | 0.00 | 0.00 | 0.00 | 98 | 914.6 |
| 20260503174123 | 17 | 288 | 0.0 | 4.8 | 0.00 | 0.00 | 0.00 | 98 | 914.7 |
| 20260503173523 | 17 | 263 | 3.2 | 6.4 | 0.00 | 0.00 | 0.00 | 97 | 914.8 |
| 20260503173222 | 17 | 262 | 3.2 | 6.4 | 0.00 | 0.00 | 0.00 | 97 | 914.9 |
| 20260503172923 | 17 | 260 | 3.2 | 9.7 | 0.00 | 0.00 | 0.00 | 97 | 914.9 |
| 20260503172722 | 17 | 264 | 3.2 | 9.7 | 0.00 | 0.00 | 0.00 | 97 | 914.9 |
| 20260503172324 | 17 | 251 | 4.8 | 9.7 | 0.00 | 0.00 | 0.00 | 97 | 914.9 |
| 20260503171724 | 17 | 227 | 6.4 | 8.0 | 0.00 | 0.00 | 0.00 | 97 | 915.0 |
| 20260503171123 | 17 | 224 | 3.2 | 8.0 | 0.00 | 0.00 | 0.00 | 97 | 915.2 |
| 20260503170722 | 17 | 242 | 3.2 | 9.7 | 0.00 | 0.00 | 0.00 | 97 | 915.2 |
| 20260503170523 | 17 | 215 | 4.8 | 9.7 | 0.00 | 0.00 | 0.00 | 97 | 915.3 |
| 20260503170222 | 17 | 201 | 6.4 | 9.7 | 0.00 | 0.00 | 0.00 | 97 | 915.3 |
| 20260503150721 | 18 | 87 | 3.2 | 6.4 | 0.00 | 0.00 | 0.00 | 95 | 915.6 |
| 20260503150221 | 18 | 46 | 4.8 | 12.9 | 0.00 | 0.00 | 0.00 | 95 | 915.6 |
| 20260503140220 | 17 | 38 | 6.4 | 12.9 | 0.03 | 0.03 | 0.00 | 98 | 915.3 |
| 20260503131121 | 17 | 12 | 0.0 | 14.5 | 0.00 | 0.00 | 0.00 | 98 | 915.4 |
| 20260503130521 | 17 | 1 | 12.9 | 20.9 | 0.00 | 0.00 | 0.00 | 98 | 915.0 |
| 20260503120219 | 17 | 67 | 12.9 | 25.7 | 0.03 | 0.03 | 0.00 | 97 | 914.8 |
| 20260503110719 | 17 | 56 | 14.5 | 22.5 | 0.00 | 0.00 | 0.00 | 97 | 913.4 |
| 20260503110520 | 17 | 70 | 1.6 | 20.9 | 0.00 | 0.00 | 0.00 | 97 | 913.4 |
| 20260503110219 | 17 | 42 | 9.7 | 16.1 | 0.00 | 0.00 | 0.00 | 98 | 913.5 |
| 20260503100220 | 17 | 14 | 11.3 | 16.1 | 0.03 | 0.03 | 0.00 | 97 | 912.9 |